Wilmington, OH NWS (KILN) Doppler Radar Loop using GRLevel3 Software
Last 10 volume scans
Wilmington, OH Radar using GRLevel3

 
 

Wilmington, OH NWS Radar Loop
Wilmington OH Radar Loop

Regional Radar Loop
Regional Radar Loop

GOES 16 GeoColor (True Color daytime, multispectral IR at night) - Great Lakes Region Loop
Regional GOES 16 IR Band 15 - Great Lakes Region Loop


SPC Day 1 Categorical Outlook
SPC Day 1 Categorical Outlook

Severe Thunderstorm Risk Categories

Category Definition Possible Impacts
THUNDERSTORMS (no label)(light green) No severe* thunderstorms expected. Lightning/flooding threats exist with all thunderstorms. Winds to 40 mph. Small hail.
1 - MARGINAL (MRGL)(dark green) Isolated severe thunderstorms possible. Limited in duration and/or coverage and/or intensity. Winds 40-60 mph. Hail up to 1". Low tornado risk.
2 - SLIGHT (SLGT)(yellow) Scattered severe storms possible. Short-lived and/or not widespread, isolated intense storms possible. One or two tornadoes. Reports of strong winds/wind damage. Hail ~1", isolated 2".
3 - ENHANCED (ENH)(orange) Numerous severe storms possible. More persistent and/or widespread, a few intense. Several reports of wind damage. A few tornadoes. Damaging hail, 1- 2".
4 - MODERATE (MDT)(red) Widespread severe storms likely. Long-lived, widespread and intense. Strong tornadoes. Widespread wind damage. Destructive hail, 2" +.
5 - HIGH (HIGH)(magenta) Widespread severe storms expected. Long-lived, very widespread and particularly intense. Tornado outbreak. Derecho.
* NWS defines a severe thunderstorm as measured wind gusts to at least 58 mph, and/or hail to at least one inch in diameter, and/or a tornado. All thunderstorm categories imply lightning and the potential for flooding. Categories are also tied to the probability of a severe weather event within 25 miles of your location.
This table is adapted from information available on National Weather Service (NWS) Storm Prediction Center's (SPC) website.

NOAA Day 1 National Forecast Map
NOAA Day 1 National Forcast Map

Day 1 Precipitation Forecast
Day 1 Precipitation Forecast


SPC Day 2 Categorical Outlook
SPC Day 2 Categorical Outlook

NOAA Day 2 National Forecast Map
NOAA Day 2 National Forcast Map

Day 2 Precipitation Forecast
Day 2 Precipitation Forecast


SPC Day 3 Categorical Outlook
SPC Day 3 Categorical Outlook

NOAA Day 3 National Forecast Map
NOAA Day 3 National Forcast Map

Day 3 Precipitation Forecast
Day 3 Precipitation Forecast


National Weather Service Regional Observations

Station State Time Temperature Dew Point RH Wind Heat Index Wind Chill Pressure Visibility Weather
Charleston West Virginia 5/20/2018 10:54 AM 77.0 68.0 74 W (260) at 3 78.8 N/A 30.11 10.0 --
Chicago O'hare Illinois 5/20/2018 10:51 AM 46.0 41.0 82 NNE (30) at 17 N/A 39.0 30.20 10.0 --
Cleveland Ohio 5/20/2018 10:51 AM 57.9 54.0 87 N (350) at 9 N/A N/A 30.15 10.0 --
Columbus Ohio 5/20/2018 10:51 AM 70.0 60.1 71 NW (310) at 8 N/A N/A 30.10 10.0 --
Covington Kentucky 5/20/2018 10:52 AM 77.0 66.0 69 W (280) at 5 78.8 N/A 30.10 10.0 --
Dayton Ohio 5/20/2018 10:56 AM 66.9 63.0 87 N (350) at 8 N/A N/A 30.13 9.0 --
Dothan Alabama 5/20/2018 10:53 AM 82.9 70.0 65 NNW (340) at 5 87.1 N/A 30.15 10.0 --
Evansville Indiana 5/20/2018 10:54 AM 78.1 63.0 60 WNW (290) at 6 79.7 N/A 30.14 10.0 --
Fort Wayne Indiana 5/20/2018 10:54 AM 64.0 59.0 84 Variable at 5 N/A N/A 30.14 10.0 --
Frankfort Kentucky 5/20/2018 10:53 AM 80.1 64.0 58 Variable at 5 81.7 N/A 30.11 10.0 --
Huntsville Alabama 5/20/2018 10:53 AM 82.0 72.0 72 SSW (210) at 8 86.9 N/A 30.13 10.0 --
Indianapolis Indiana 5/20/2018 10:54 AM 73.0 66.0 79 Calm 73.6 N/A 30.10 6.0 Haze
Knoxville Tennessee 5/20/2018 10:53 AM 81.0 68.0 65 W (270) at 9 83.7 N/A 30.15 10.0 --
Lexington Kentucky 5/20/2018 10:54 AM 77.0 69.1 77 S (190) at 8 78.6 N/A 30.13 10.0 --
Louisville Kentucky 5/20/2018 10:56 AM 81.0 64.0 57 W (260) at 9 82.6 N/A 30.10 10.0 --
Nashville Tennessee 5/20/2018 10:53 AM 81.0 64.0 57 Calm 82.6 N/A 30.14 10.0 --
Noctor/Jackson Kentucky 5/20/2018 10:53 AM 75.0 68.0 79 Variable at 3 75.7 N/A 30.15 10.0 --
Paducah Kentucky 5/20/2018 10:53 AM 77.0 66.9 71 Variable at 3 78.8 N/A 30.10 10.0 --
Pittsburgh Pennsylvania 5/20/2018 10:51 AM 70.0 62.1 76 W (280) at 9 N/A N/A 30.06 10.0 --
St. Louis Missouri 5/20/2018 10:51 AM 72.0 64.9 79 SSE (150) at 10 72.7 N/A 30.09 10.0 --
West Palm Beach Florida 5/20/2018 10:53 AM 73.9 73.9 100 WSW (240) at 8 69.6 N/A 30.11 10.0 --
Wilmington Ohio 5/20/2018 10:54 AM 72.0 68.0 87 N (10) at 5 70.2 N/A 30.11 4.0 Mist

These are regional hourly observations made by the National Weather Service. The observations are usually made between 50 and 59 minutes past the hour and are usually available by 15 minutes past the next hour.


This page will reload automatically every 10 minutes.

37,496 Page Views